Weather History for Andrews, NC

Change the Weather History Date:

Saturday, August 23, 2014

  Actual Average (KTYS) Record (KTYS)
Temperature  
Mean Temperature 74 °F 78 °F  
Max Temperature 86 °F 88 °F 102 °F (2007)
Min Temperature 62 °F 67 °F 54 °F (1930)
Degree Days  
Heating Degree Days 0 0  
Month to date heating degree days 0  
Since 1 June heating degree days 4  
Since 1 July heating degree days 0  
Cooling Degree Days 9 12  
Month to date cooling degree days 298  
Year to date cooling degree days 1182  
Since 1 June cooling degree days 1020  
Growing Degree Days 24 (Base 50)    
Moisture  
Dew Point 69 °F    
Average Humidity 86    
Maximum Humidity 100    
Minimum Humidity 56    
Precipitation  
Precipitation 0.00 in 0.09 in 1.60 in (1967)
Month to date precipitation 2.56  
Year to date precipitation 32.89  
Snow  
Snow 0.00 in 0.00 in - ()
Month to date snowfall 0.0  
Since 1 June snowfall 0.0  
Since 1 July snowfall 0.0  
Snow Depth -    
Sea Level Pressure  
Sea Level Pressure 30.04 in    
Wind  
Wind Speed 1 mph (NNE)    
Max Wind Speed 9 mph    
Max Gust Speed -    
Visibility 7 miles    
Events Fog , Rain    
T = Trace of Precipitation, MM = Missing Value Source: NWS Daily Summary

Daily Weather History Graph

Daily Weather History Graph

Search for Another Location

Airport:

Trip Planner

Search our weather history database for the weather conditions in past years. The results will help you decide how hot, cold, wet, or windy it might be!

Date:

Astronomy

Aug. 23, 2014 Rise Set
Actual Time 7:01 AM EDT 8:14 PM EDT
Civil Twilight 6:34 AM EDT 8:40 PM EDT
Nautical Twilight 6:03 AM EDT 9:11 PM EDT
Astronomical Twilight 5:30 AM EDT 9:44 PM EDT
Moon 5:18 AM EDT (8/23) 6:57 PM EDT (8/23)
Length of Visible Light 14h 05m
Length of Day
13h 13m
Waning Crescent, 3% of the Moon is Illuminated
Aug 23
Waning Crescent
Aug 25
New
Sep 2
First Quarter
Sep 8
Full
Sep 15
Last Quarter

Hourly Weather History & Observations

Time (EDT) Temp. Heat Index Dew Point Humidity Pressure Visibility Wind Dir Wind Speed Gust Speed Precip Events Conditions
12:15 AM 66.9 °F - 66.6 °F 99% 30.10 in 10.0 mi Calm Calm - N/A   Clear
12:35 AM 66.2 °F - 65.8 °F 99% 30.10 in 7.0 mi Calm Calm - N/A   Clear
1:15 AM 65.7 °F - 65.5 °F 99% 30.09 in 5.0 mi Calm Calm - N/A   Clear
1:35 AM 65.8 °F - 65.7 °F 99% 30.09 in 5.0 mi Calm Calm - N/A   Clear
1:55 AM 66.0 °F - 65.7 °F 99% 30.09 in 10.0 mi Calm Calm - N/A   Clear
2:15 AM 65.3 °F - 65.3 °F 100% 30.08 in 7.0 mi Calm Calm - N/A   Clear
2:35 AM 65.5 °F - 65.3 °F 99% 30.08 in 7.0 mi Calm Calm - N/A   Clear
2:55 AM 65.3 °F - 65.1 °F 99% 30.07 in 4.0 mi Calm Calm - N/A   Clear
3:15 AM 64.6 °F - 64.4 °F 99% 30.07 in 5.0 mi Calm Calm - N/A   Clear
3:55 AM 64.4 °F - 64.2 °F 99% 30.07 in 5.0 mi Calm Calm - N/A   Clear
4:15 AM 64.0 °F - 63.9 °F 99% 30.06 in 4.0 mi Calm Calm - N/A   Scattered Clouds
4:35 AM 64.8 °F - 64.8 °F 100% 30.06 in 7.0 mi Calm Calm - N/A   Scattered Clouds
4:55 AM 64.0 °F - 64.0 °F 100% 30.05 in 4.0 mi Calm Calm - N/A   Clear
5:15 AM 63.7 °F - 63.7 °F 100% 30.06 in 1.2 mi Calm Calm - N/A   Mist
5:35 AM 62.8 °F - 62.8 °F 100% 30.06 in 0.8 mi Calm Calm - N/A   Mostly Cloudy
5:55 AM 63.5 °F - 63.5 °F 100% 30.06 in 0.2 mi Calm Calm - N/A Fog Fog
6:15 AM 63.5 °F - 63.5 °F 100% 30.06 in 0.5 mi Calm Calm - N/A Fog Fog
6:35 AM 63.9 °F - 63.9 °F 100% 30.07 in 0.5 mi Calm Calm - N/A Fog Fog
6:55 AM 63.5 °F - 63.5 °F 100% 30.08 in 0.2 mi Calm Calm - N/A Fog Fog
7:15 AM 63.7 °F - 63.7 °F 100% 30.08 in 0.2 mi Calm Calm - N/A Fog Fog
7:35 AM 64.0 °F - 64.0 °F 100% 30.08 in 0.2 mi Calm Calm - N/A Fog Fog
7:55 AM 64.6 °F - 64.6 °F 100% 30.09 in 0.2 mi Calm Calm - N/A Fog Fog
8:15 AM 64.9 °F - 64.9 °F 100% 30.09 in 1.0 mi Calm Calm - N/A   Overcast
8:35 AM 65.8 °F - 65.8 °F 100% 30.08 in 0.2 mi Calm Calm - N/A Fog Fog
8:55 AM 66.6 °F - 66.6 °F 100% 30.08 in 1.0 mi Calm Calm - N/A   Overcast
9:15 AM 67.1 °F - 67.1 °F 100% 30.08 in 5.0 mi Calm Calm - N/A   Overcast
9:35 AM 68.2 °F - 68.0 °F 99% 30.08 in 10.0 mi Calm Calm - N/A   Overcast
9:55 AM 70.0 °F - 68.9 °F 96% 30.08 in 10.0 mi Calm Calm - N/A   Mostly Cloudy
10:15 AM 72.5 °F - 69.6 °F 91% 30.08 in 10.0 mi Calm Calm - N/A   Mostly Cloudy
10:35 AM 73.2 °F - 70.2 °F 90% 30.08 in 10.0 mi Calm Calm - N/A Rain Light Rain
10:55 AM 74.1 °F - 71.1 °F 90% 30.08 in 10.0 mi West 3.5 mph - N/A   Overcast
11:15 AM 75.6 °F - 72.0 °F 89% 30.07 in 10.0 mi SW 3.5 mph - N/A   Scattered Clouds
11:35 AM 78.3 °F - 73.0 °F 84% 30.07 in 10.0 mi West 3.5 mph - N/A   Clear
12:15 PM 83.8 °F 89.5 °F 72.1 °F 68% 30.06 in 10.0 mi Calm Calm - N/A   Scattered Clouds
12:35 PM 83.5 °F 89.7 °F 73.0 °F 71% 30.06 in 10.0 mi Calm Calm - N/A   Mostly Cloudy
12:55 PM 83.5 °F 90.6 °F 74.5 °F 74% 30.06 in 10.0 mi West 8.1 mph - N/A   Scattered Clouds
1:15 PM 83.3 °F 89.9 °F 73.9 °F 73% 30.05 in 10.0 mi West 9.2 mph - N/A   Scattered Clouds
1:35 PM 82.9 °F 89.4 °F 73.9 °F 74% 30.05 in 10.0 mi WSW 6.9 mph - N/A   Scattered Clouds
1:55 PM 84.2 °F 90.3 °F 72.5 °F 68% 30.04 in 10.0 mi Calm Calm - N/A   Mostly Cloudy
2:15 PM 86.2 °F 91.1 °F 70.2 °F 59% 30.03 in 10.0 mi NNW 3.5 mph - N/A   Scattered Clouds
2:35 PM 86.5 °F 90.7 °F 69.3 °F 56% 30.03 in 10.0 mi North 8.1 mph - N/A   Clear
2:55 PM 86.0 °F 90.1 °F 69.3 °F 57% 30.03 in 10.0 mi NNW 8.1 mph - N/A   Clear
3:15 PM 86.5 °F 91.4 °F 70.3 °F 58% 30.03 in 10.0 mi ENE 3.5 mph - N/A   Scattered Clouds
3:35 PM 86.9 °F 91.7 °F 69.8 °F 57% 30.01 in 10.0 mi East 3.5 mph - N/A   Scattered Clouds
3:55 PM 86.9 °F 91.7 °F 70.0 °F 57% 30.01 in 10.0 mi North 8.1 mph - N/A   Mostly Cloudy
4:15 PM 84.7 °F 88.8 °F 69.4 °F 60% 30.01 in 10.0 mi North 6.9 mph - N/A   Scattered Clouds
4:35 PM 84.6 °F 89.4 °F 70.7 °F 63% 30.01 in 10.0 mi Calm Calm - N/A   Scattered Clouds
4:55 PM 85.6 °F 89.7 °F 69.4 °F 58% 30.01 in 10.0 mi Calm Calm - N/A   Mostly Cloudy
5:15 PM 86.5 °F 92.1 °F 71.2 °F 60% 30.00 in 10.0 mi ENE 3.5 mph - N/A   Mostly Cloudy
5:35 PM 86.0 °F 92.2 °F 72.1 °F 63% 29.99 in 10.0 mi NNW 4.6 mph - N/A   Mostly Cloudy
5:55 PM 86.0 °F 91.8 °F 71.8 °F 62% 29.98 in 10.0 mi North 5.8 mph - N/A   Clear
6:15 PM 85.1 °F 91.1 °F 72.3 °F 65% 29.98 in 10.0 mi East 5.8 mph - N/A   Mostly Cloudy
6:35 PM 82.0 °F 86.7 °F 72.0 °F 71% 29.98 in 10.0 mi ESE 8.1 mph - N/A   Scattered Clouds
6:55 PM 82.4 °F 87.4 °F 72.1 °F 71% 29.98 in 10.0 mi East 3.5 mph - N/A   Clear
7:15 PM 81.5 °F 86.3 °F 72.7 °F 74% 29.97 in 10.0 mi ESE 3.5 mph - N/A   Clear
7:35 PM 79.9 °F - 72.9 °F 79% 29.97 in 10.0 mi Calm Calm - N/A   Clear
8:15 PM 75.6 °F - 72.1 °F 89% 29.98 in 10.0 mi Calm Calm - N/A   Clear
8:35 PM 74.3 °F - 71.6 °F 91% 29.98 in 10.0 mi Calm Calm - N/A   Clear
8:55 PM 73.6 °F - 71.2 °F 92% 29.99 in 10.0 mi Calm Calm - N/A   Clear
9:15 PM 72.9 °F - 71.1 °F 94% 29.99 in 7.0 mi Calm Calm - N/A   Clear
9:35 PM 71.6 °F - 70.3 °F 96% 30.01 in 7.0 mi Calm Calm - N/A   Clear
9:55 PM 70.9 °F - 69.8 °F 96% 30.03 in 7.0 mi Calm Calm - N/A   Clear
10:15 PM 71.4 °F - 69.8 °F 95% 30.03 in 7.0 mi Calm Calm - N/A   Clear
10:35 PM 71.2 °F - 69.6 °F 95% 30.03 in 7.0 mi NE 4.6 mph - N/A   Clear
10:55 PM 70.3 °F - 69.3 °F 96% 30.04 in 7.0 mi Calm Calm - N/A   Clear
11:15 PM 69.8 °F - 69.3 °F 98% 30.04 in 5.0 mi ESE 3.5 mph - N/A   Clear
11:35 PM 69.6 °F - 68.7 °F 97% 30.04 in 7.0 mi Calm Calm - N/A   Clear
11:55 PM 69.1 °F - 68.5 °F 98% 30.04 in 5.0 mi Calm Calm - N/A   Clear